Weather History for Truckee-Tahoe, CA

Change the Weather History Date:

Wednesday, February 13, 2013

  Actual Average Record
Temperature  
Mean Temperature 29 °F -  
Max Temperature 44 °F 44 °F 61 °F (1977)
Min Temperature 14 °F 19 °F -9 °F (1949)
Degree Days  
Heating Degree Days 36    
Moisture  
Dew Point 19 °F    
Average Humidity 79    
Maximum Humidity 100    
Minimum Humidity 42    
Precipitation  
Precipitation 0.00 in - - ()
Snow  
Snow 0.00 in - - ()
Snow Depth 6.00 in    
Sea Level Pressure  
Sea Level Pressure 30.35 in    
Wind  
Wind Speed 2 mph (SE)    
Max Wind Speed 12 mph    
Max Gust Speed -    
Visibility 10 miles    
Events      
Averages and records for this station are not official NWS values.
T = Trace of Precipitation, MM = Missing Value Source: NWS Daily Summary

Daily Weather History Graph

Daily Weather History Graph

Search for Another Location

Airport:

Trip Planner

Search our weather history database for the weather conditions in past years. The results will help you decide how hot, cold, wet, or windy it might be!

Date:

Astronomy

Feb. 13, 2013 Rise Set
Actual Time 6:54 AM PST 5:35 PM PST
Civil Twilight 6:26 AM PST 6:03 PM PST
Nautical Twilight 5:55 AM PST 6:34 PM PST
Astronomical Twilight 5:24 AM PST 7:05 PM PST
Moon 8:28 AM PST (2/13) 9:41 PM PST (2/13)
Length of Visible Light 11h 36m
Length of Day
10h 41m
Waxing Crescent, 14% of the Moon is Illuminated
Feb 13
Waxing Crescent
Feb 17
First Quarter
Feb 25
Full
Mar 4
Last Quarter
Mar 11
New

Hourly Weather History & Observations

Time (PST) Temp. Windchill Dew Point Humidity Pressure Visibility Wind Dir Wind Speed Gust Speed Precip Events Conditions
12:15 AM 23.0 °F - 17.6 °F 80% 30.38 in 10.0 mi Calm Calm - N/A   Clear
12:35 AM 19.4 °F 14.3 °F 15.8 °F 86% 30.38 in 10.0 mi East 3.5 mph - N/A   Clear
12:55 AM 19.4 °F 14.3 °F 15.8 °F 86% 30.38 in 10.0 mi SSE 3.5 mph - N/A   Clear
1:15 AM 17.6 °F - 15.8 °F 93% 30.38 in 10.0 mi Calm Calm - N/A   Clear
1:35 AM 21.2 °F - 17.6 °F 86% 30.39 in 10.0 mi Calm Calm - N/A   Clear
1:55 AM 17.6 °F - 15.8 °F 93% 30.39 in 10.0 mi Calm Calm - N/A   Clear
2:15 AM 19.4 °F - 15.8 °F 86% 30.39 in 10.0 mi Calm Calm - N/A   Clear
2:35 AM 17.6 °F 12.3 °F 15.8 °F 93% 30.38 in 10.0 mi SSW 3.5 mph - N/A   Clear
2:55 AM 17.6 °F - 17.6 °F 100% 30.38 in 10.0 mi Calm Calm - N/A   Clear
3:15 AM 17.6 °F 12.3 °F 15.8 °F 93% 30.38 in 10.0 mi West 3.5 mph - N/A   Clear
3:35 AM 19.4 °F - 17.6 °F 93% 30.37 in 10.0 mi Calm Calm - N/A   Clear
3:55 AM 15.8 °F - 14.0 °F 93% 30.37 in 10.0 mi Calm Calm - N/A   Clear
4:15 AM 15.8 °F - 15.8 °F 100% 30.37 in 10.0 mi Calm Calm - N/A   Clear
4:35 AM 15.8 °F - 15.8 °F 100% 30.37 in 9.0 mi Calm Calm - N/A   Clear
4:55 AM 15.8 °F - 14.0 °F 93% 30.37 in 10.0 mi Calm Calm - N/A   Clear
5:15 AM 15.8 °F - 14.0 °F 93% 30.36 in 10.0 mi Calm Calm - N/A   Clear
5:35 AM 15.8 °F - 14.0 °F 93% 30.36 in 1.5 mi Calm Calm - N/A   Clear
6:45 AM 14.0 °F - 12.2 °F 93% 30.38 in 10.0 mi Calm Calm - N/A   Clear
7:55 AM 14.0 °F - 12.2 °F 93% 30.40 in 10.0 mi Calm Calm - N/A   Clear
9:50 AM 26.6 °F - 19.4 °F 74% 30.39 in 10.0 mi Calm Calm - N/A   Clear
10:50 AM 32.0 °F - 19.4 °F 60% 30.39 in 10.0 mi Calm Calm - N/A   Clear
11:45 AM 37.4 °F - 19.4 °F 48% 30.37 in 10.0 mi Calm Calm - N/A   Clear
2:55 PM 44.6 °F 43.1 °F 23.0 °F 43% 30.31 in 10.0 mi SE 3.5 mph - N/A   Partly Cloudy
4:50 PM 42.8 °F 37.0 °F 21.2 °F 42% 30.30 in 10.0 mi NNE 10.4 mph - N/A   Clear
4:55 PM 42.8 °F 36.6 °F 23.0 °F 46% 30.30 in 10.0 mi North 11.5 mph - N/A   Clear
5:15 PM 41.0 °F 34.7 °F 21.2 °F 45% 30.30 in 10.0 mi North 10.4 mph - N/A   Clear
5:35 PM 41.0 °F 35.2 °F 23.0 °F 49% 30.30 in 10.0 mi North 9.2 mph - N/A   Clear
5:55 PM 39.2 °F 37.0 °F 23.0 °F 52% 30.31 in 10.0 mi SE 3.5 mph - N/A   Clear
6:15 PM 37.4 °F - 23.0 °F 56% 30.31 in 10.0 mi Calm Calm - N/A   Clear
6:35 PM 35.6 °F 30.7 °F 23.0 °F 60% 30.32 in 10.0 mi SE 5.8 mph - N/A   Clear
6:55 PM 32.0 °F 26.4 °F 23.0 °F 69% 30.32 in 10.0 mi SE 5.8 mph - N/A   Clear
7:15 PM 32.0 °F 28.7 °F 23.0 °F 69% 30.32 in 10.0 mi SE 3.5 mph - N/A   Clear
7:35 PM 28.4 °F 24.6 °F 23.0 °F 80% 30.32 in 10.0 mi SSW 3.5 mph - N/A   Clear
7:55 PM 28.4 °F 23.3 °F 23.0 °F 80% 30.32 in 10.0 mi SSE 4.6 mph - N/A   Clear
8:15 PM 28.4 °F - 23.0 °F 80% 30.32 in 10.0 mi Calm Calm - N/A   Clear
8:35 PM 26.6 °F 21.2 °F 23.0 °F 86% 30.33 in 10.0 mi SW 4.6 mph - N/A   Clear
8:55 PM 24.8 °F 20.5 °F 21.2 °F 86% 30.33 in 10.0 mi SSW 3.5 mph - N/A   Clear
9:15 PM 24.8 °F - 21.2 °F 86% 30.32 in 10.0 mi Calm Calm - N/A   Clear
9:35 PM 28.4 °F 24.6 °F 21.2 °F 74% 30.33 in 10.0 mi ENE 3.5 mph - N/A   Clear
9:55 PM 24.8 °F - 19.4 °F 80% 30.33 in 10.0 mi Calm Calm - N/A   Clear
10:15 PM 24.8 °F 20.5 °F 19.4 °F 80% 30.34 in 10.0 mi SE 3.5 mph - N/A   Clear
10:35 PM 23.0 °F - 19.4 °F 86% 30.34 in 10.0 mi Calm Calm - N/A   Clear
10:55 PM 24.8 °F - 19.4 °F 80% 30.34 in 10.0 mi Calm Calm - N/A   Clear
11:15 PM 24.8 °F 19.1 °F 19.4 °F 80% 30.34 in 10.0 mi NNW 4.6 mph - N/A   Clear
11:35 PM 24.8 °F 20.5 °F 19.4 °F 80% 30.34 in 10.0 mi ESE 3.5 mph - N/A   Clear
11:55 PM 19.4 °F 12.8 °F 17.6 °F 93% 30.34 in 10.0 mi SSE 4.6 mph - N/A   Clear